www.pogodaiklimat.ru

Погода и климат >> Архив погоды >> Кот-д'Ивуар >> Yamoussoukro


ПОГОДА в Yamoussoukro

  • Прогноз погоды в Yamoussoukro
  • Монитор погоды в Yamoussoukro
  • Климат города

АРХИВ ПОГОДЫ в Yamoussoukro

Время (UTC), дата Ветер
(напр.,м/с)
 
Видим.   Явления Облачность Т
(С)
Тd
(С)
f
(%)
Тe
(С)
Тes
(С)
Комфортность P
(гПа)
Po
(гПа)
Тmin
(С)
Tmax
(С)
R
(мм)
R24
(мм)
S
(см)
18 18.05 ЮЗ 3 8000 м смерч (торнадо) {гроза, дождь} 9/4 450 м
[Cb cap Ac As]
+25.0 +23.6 92 +34 +34 очень
душно
1008.9 985.1 +34.8 2
21 18.05 ЮЗ 4 10 км {гроза} 9/6 330 м
[Sc Ac As]
+24.3 +23.7 96 +33 +33 очень
душно
1011.2 987.3
00 19.05 ЮЗ 1 10 км {гроза} 3/3 300 м
[Sc]
+23.9 +23.5 98 +32 +32 очень
душно
1012.1 988.2
06 19.05 ЮЗ 2 8000 м 6/4 300 м
[Sc Ac As]
+23.9 +23.4 97 +32 +32 очень
душно
1012.6 988.7 +22.5 2
09 19.05 ЮЗ 3 10 км 9/8 400 м
[Cu med, cong Ac trans]
+27.4 +24.1 82 +38 +39 очень
душно
1014.2 990.5
12 19.05 Ю 4 10 км 8/8 450 м
[Cu med, cong]
+31.2 +24.9 69 +44 +47 опасность
перегрева
1012.6 989.2
15 19.05 Ю 2 10 км 6/6 450 м
[Cu med, cong]
+32.6 +23.3 58 +43 +48 опасность
перегрева
1009.7 986.5
18 19.05 штиль 0 10 км 4/1 450 м
[Cb cap Ci ing]
+31.6 +22.9 60 +42 +42 опасность
перегрева
1008.9 985.8 +34.3
21 19.05 штиль 0 10 км 3/3 400 м
[Cb cap]
+26.5 +23.8 85 +36 +36 очень
душно
1012.2 988.4
00 20.05 штиль 0 10 км ясно +25.0 +24.0 94 +34 +34 очень
душно
1013.1 989.1
03 20.05 штиль 0 10 км ясно +24.0 +23.6 98 +33 +33 очень
душно
1012.9 987.7
06 20.05 штиль 0 8000 м 6/6 300 м
[Sc]
+24.2 +23.5 96 +33 +33 очень
душно
1012.9 989.0 +23.5
09 20.05 ЮЗ 4 10 км 10/10 330 м
[Cu med, cong]
+26.4 +23.9 86 +36 +36 очень
душно
1014.2 990.5
12 20.05 З 2 10 км 8/8 450 м
[Cu med, cong]
+29.8 +24.4 73 +42 +46 опасность
перегрева
1013.1 989.6
15 20.05 Ю 3 10 км 6/6 450 м
[Cu med, cong]
+31.5 +25.0 68 +45 +49 опасность
перегрева
1010.7 987.4
18 20.05 ЮЗ 2 10 км 4/1 450 м
[Cu med, cong Ci sp]
+31.0 +24.4 68 +43 +44 опасность
перегрева
1009.6 986.3 +34.5
21 20.05 Ю 3 10 км 4/3 300 м
[Sc Ci sp]
+26.7 +23.7 84 +37 +37 очень
душно
1012.6 988.9
00 21.05 штиль 0 10 км ясно +25.0 +23.8 93 +34 +34 очень
душно
1014.2 990.6
06 21.05 СЗ 1 10 км в посл. час дождь {гроза} 10/1 300 м
[Sc Ac As]
+21.5 +21.2 98 +27 +27 душно 1013.3 989.2 +21.5 21
09 21.05 ЮЗ 4 10 км в посл. час дождь 10/6 450 м
[Cu med, cong Ac As]
+22.7 +21.9 95 +30 +31 очень
душно
1013.8 989.7
12 21.05 З 2 10 км {дождь} 8/5 400 м
[Cu med, cong Ac As]
+27.1 +22.1 74 +35 +41 очень
душно
1013.0 989.6 2
15 21.05 Ю 4 10 км 5/5 400 м
[Cu med, cong Ac trans]
+30.6 +22.1 61 +40 +44 очень
душно
1010.5 987.1
18 21.05 штиль 0 10 км 3/1 450 м
[Cb cap Ac trans]
+29.8 +25.0 75 +43 +43 опасность
перегрева
1009.5 986.5 +32.5
21 21.05 СЗ 2 10 км зарница 8/1 330 м
[Cb cap Ci sp]
+25.9 +24.5 92 +36 +36 очень
душно
1011.9 988.2
00 22.05 штиль 0 10 км 5/5 300 м
[Sc]
+24.4 +23.9 97 +33 +33 очень
душно
1012.6 988.7
06 22.05 ЮЗ 2 10 км 5/3 300 м
[Sc Ci sp]
+23.5 +23.0 97 +31 +31 очень
душно
1011.7 987.8 +23.1 2
09 22.05 ЮЗ 2 10 км 4/4 330 м
[Cu med, cong]
+26.9 +23.5 82 +37 +42 очень
душно
1012.6 988.9
12 22.05 ЮЗ 2 10 км 8/8 400 м
[Cu med, cong]
+30.8 +24.0 67 +42 +46 опасность
перегрева
1011.5 988.1
15 22.05 штиль 0 10 км 5/5 450 м
[Cu med, cong]
+32.4 +22.9 57 +42 +51 опасность
перегрева
1008.7 985.5
18 22.05 штиль 0 10 км 3/3 450 м
[Cu med, cong]
+32.1 +26.2 71 +48 +49 опасность
перегрева
1008.2 985.0 +34.8
21 22.05 штиль 0 10 км 3/3 400 м
[Sc]
+27.6 +25.9 90 +41 +41 опасность
перегрева
1010.1 986.6
00 23.05 Ю 1 10 км 9/6 400 м
[Sc Ac trans]
+26.5 +24.8 90 +38 +38 очень
душно
1011.5 987.8
09 23.05 ЮЗ 5 10 км 8/8 400 м
[Cu med, cong]
+27.2 +24.2 84 +38 +39 очень
душно
1012.5 988.8
12 23.05 ЮЗ 4 10 км 8/8 450 м
[Cu med, cong]
+31.2 +24.4 67 +43 +46 опасность
перегрева
1011.6 988.3
15 23.05 ЮЗ 2 10 км 8/8 450 м
[Cb calv]
+32.4 +24.6 64 +45 +48 опасность
перегрева
1009.2 986.0
18 23.05 штиль 0 10 км 9/4 450 м
[Cu med, cong Ac trans]
+32.5 +25.9 68 +48 +48 опасность
перегрева
1008.8 985.6 +34.3
21 23.05 ЮЗ 2 10 км 6/3 330 м
[Sc Ac trans]
+26.5 +23.9 86 +37 +37 очень
душно
1011.3 987.6
00 24.05 штиль 0 10 км ясно +25.2 +23.2 89 +34 +34 очень
душно
1012.5 988.8
03 24.05 штиль 0 10 км ясно +24.2 +23.4 95 +32 +32 очень
душно
1011.2 987.3
06 24.05 З 2 8000 м 3/3 300 м
[Cu med, cong]
+24.5 +23.8 96 +33 +33 очень
душно
1011.9 988.0 +24.0
09 24.05 З 3 10 км гроза без осадков 8/6 330 м
[Cb cap Ac trans]
+26.5 +24.2 87 +37 +39 очень
душно
1013.0 989.3
12 24.05 ЮВ 1 10 км гроза без осадков {туман} 9/4 400 м
[Cb cap Ac As]
+28.2 +23.8 77 +39 +45 очень
душно
1013.9 990.3
15 24.05 ЮЗ 4 10 км в посл. час гроза 6/1 400 м
[Cu med, cong Ac As]
+26.5 +22.9 81 +35 +40 очень
душно
1010.7 987.0
18 24.05 ЮЗ 2 10 км {гроза} 6/1 400 м
[Cu med, cong Ci sp]
+27.3 +23.6 80 +37 +37 очень
душно
1010.3 986.7 +30.0
21 24.05 штиль 0 10 км 8/1 330 м
[Sc Ci sp]
+25.0 +24.1 95 +34 +34 очень
душно
1012.5 988.7
00 25.05 штиль 0 10 км 5/0
[Ac trans]
+24.7 +23.5 93 +33 +33 очень
душно
1013.3 989.3
03 25.05 штиль 0 10 км 4/4 300 м
[Sc]
+24.0 +23.1 95 +32 +32 очень
душно
1011.5 987.6
06 25.05 ЮЗ 2 10 км 9/6 300 м
[Sc Ac trans]
+24.0 +23.6 98 +33 +33 очень
душно
1012.3 988.3 +23.2
09 25.05 ЮЗ 5 10 км 8/8 330 м
[Cu med, cong]
+26.4 +23.2 83 +36 +36 очень
душно
1014.1 990.3
12 25.05 ЮЗ 5 10 км 8/8 400 м
[Cu med, cong]
+29.9 +23.8 70 +41 +43 опасность
перегрева
1013.4 989.9
15 25.05 Ю 7 10 км 9/9 400 м
[Cb cap]
+27.3 +22.5 75 +36 +36 очень
душно
1011.6 987.9

 

Местоположение метеостанции Yamoussoukro (Кот-д'Ивуар): широта 6.90 долгота -5.35 высота над уровнем моря 213 м.

В архиве по умолчанию представлена погода в Yamoussoukro за последнюю неделю. Архивные данные за месяц целиком и за предыдущие месяцы, начиная с января 2011 года, Вы можете получить, выбрав интересующий диапазон дат из раскрывающегося списка и нажав кнопку "Ввод!".

Внимание! Время в таблицах - всемирное. Для получения местного времени необходимо прибавить поправку, которая в Yamoussoukro равна 0 ч.

Смотрите также архив погоды в соседних городах и на ближайших метеорологических станциях:

Погода в Dimbokro (Кот-д'Ивуар) (77 км)
Погода в Bouake (Кот-д'Ивуар) (98 км)
Погода в Gagnoa (Кот-д'Ивуар) (108 км)
Погода в Daloa (Кот-д'Ивуар) (124 км)
Погода в Sassandra (Кот-д'Ивуар) (231 км)
Погода в Abidjan (Кот-д'Ивуар) (242 км)
Погода в Man (Кот-д'Ивуар) (245 км)
Погода в San Pedro (Кот-д'Ивуар) (279 км)
Погода в Korhogo (Кот-д'Ивуар) (282 км)
Погода в Adiake (Кот-д'Ивуар) (288 км)

Пояснения к столбцам:

Ветер - указаны скорость ветра в м/с - средняя за 10 мин, порывы в срок и между сроками (в фигурных скобках) и направление, откуда дует ветер: С - северный, СВ - северо-восточный, В - восточный, ЮВ - юго-восточный, Ю - южный, ЮЗ - юго-западный, З - западный, СЗ - северо-западный.
Видимость - горизонтальная дальность видимости в метрах или километрах. При видимости от 1 до 10 км при отсутствии осадков обычно наблюдается дымка, при ухудшении видимости до 1 км и менее - туман. В сухую погоду видимость может ухудшаться дымом, пылью или мглою.
Явления - указаны атмосферные явления, наблюдавшиеся в срок или в последний час перед сроком; фигурными скобками обозначены явления, наблюдавшиеся между сроками (за 1-3 часа до срока); квадратными скобками обозначены град или гололедные отложения с указанием их диаметра в мм.
Облачность - указаны через наклонную черту общая и нижняя облачность в баллах и высота нижней границы облаков в метрах; квадратными скобками обозначены формы облаков: Ci - перистые, Cs - перисто-слоистые, Cc - перисто-кучевые, Ac - высококучевые, As - высокослоистые, Sc - слоисто-кучевые, Ns - слоисто-дождевые, Cu - кучевые, Cb - кучево-дождевые. Подробнее классификацию облаков см. в Атласе облаков (PDF).
T - Температура воздуха - температура, измеренная на высоте 2 м над землей.
Td - Температура точки росы - температура, при понижении до которой содержащийся в воздухе водяной пар достигнет насыщения.
f - Относительная влажность воздуха - влажноcть воздуха, измеренная на высоте 2 м над землей.
Te - Эффективная температура - температура, которую ощущает одетый по сезону человек в тени. Характеристика душности погоды. При расчете учитывается влияние влажности воздуха и скорости ветра на теплоощущения человека.
Tes - Эффективная температура на солнце - температура, которую ощущает человек, с поправкой на солнечный нагрев. Характеристика знойности погоды. Зависит от высоты солнца над горизонтом, облачности и скорости ветра. Ночью, в пасмурную погоду, а также при ветре 12 м/с и более поправка равна нулю.
P - Атмосферное давление - приведенное к уровню моря атмосферное давление.
Po - Атмосферное давление - измеренное на уровне метеостанции атмосферное давление.
Tmin - Минимальная температура - минимум температуры воздуха на высоте 2 м над землей.
Tmax - Максимальная температура - максимум температуры воздуха на высоте 2 м над землей.
R - Количество осадков - Количество выпавших осадков за период времени, мм. При наведении курсора мыши на число - период времени, за который выпало указанное количество осадков.
R24 - Количество осадков - Количество выпавших осадков за 24 часа, мм.
S - Снежный покров - Высота снежного покрова, см. При наведении курсора мыши на число - состояние снежного покрова и степень покрытия местности в баллах.